Wind_Speed
22 23 24 25 26 27 27 28 28 29 29 29 30 30 29 28 27 27 27 26 26 26 26 25 24 24 24 23 23 22 22 22 22 22 23 23 23 23 22 22 22 22 23 23 23 23 23 23 23 23 23 23 23 23 22 22 22 21 21 21 22 22 23 23 24 24 25 25 26
24 25 26 28 28 29 29 29 29 29 29 28 27 27 27 26 26 26 26 26 25 25 25 25 24 24 23 23 23 22 22 22 22 22 22 21 22 21 21 21 21 22 23 23 23 23 23 23 23 23 23 23 23 22 22 22 22 22 22 23 23 23 24 24 25 25 25 26 27
27 28 28 28 28 27 27 27 27 27 27 27 27 26 26 26 26 26 26 26 25 25 24 24 24 24 24 24 23 23 23 23 22 22 22 22 22 21 22 22 23 23 23 23 23 23 23 23 24 24 25 24 24 24 23 22 22 22 22 23 23 23 24 24 24 24 25 26 28
28 28 28 28 27 27 26 27 27 27 27 27 27 27 27 27 27 27 27 27 26 25 25 25 25 25 25 25 25 24 23 22 21 21 20 21 22 23 24 24 24 24 23 23 23 23 23 24 25 26 26 26 25 25 24 23 22 21 22 22 20 19 19 20 22 24 25 26 27
28 28 28 28 28 28 28 28 28 27 27 27 27 27 28 28 28 29 29 28 27 27 26 26 26 26 26 26 25 24 23 22 20 19 19 21 22 24 24 24 24 23 23 23 23 23 24 25 26 26 26 25 24 23 23 22 21 20 20 21 20 19 19 21 23 25 25 23 21
28 28 28 29 29 29 29 29 28 27 27 27 28 28 29 29 29 30 30 30 30 30 29 29 28 28 27 26 25 24 22 21 20 20 21 22 23 23 23 23 23 22 22 22 22 23 24 25 26 25 24 24 22 22 22 21 20 19 19 21 22 23 24 24 24 23 20 17 15
28 29 29 29 29 29 29 29 29 29 29 29 30 30 31 31 31 32 32 32 33 33 32 32 31 30 29 27 26 24 22 21 21 21 21 21 22 22 23 23 22 22 22 22 22 23 24 25 26 26 25 24 22 20 20 19 19 19 20 22 23 24 23 22 20 18 16 15 13
29 29 29 29 29 29 30 30 30 30 31 31 31 32 33 34 34 34 34 34 34 34 33 32 31 30 28 27 26 24 23 22 21 21 20 20 20 21 22 23 22 22 22 21 21 22 23 24 26 27 26 22 19 17 17 16 17 19 21 21 21 19 18 17 16 16 16 15 13
29 29 29 29 29 30 30 30 30 30 31 31 32 33 33 34 35 36 36 35 35 34 33 30 28 26 25 24 24 24 23 22 22 21 20 19 19 19 20 21 22 21 20 18 18 19 21 24 26 26 23 19 17 17 16 16 17 19 19 19 16 14 14 14 14 15 15 14 13
29 29 29 29 29 29 29 29 30 30 30 31 32 32 33 34 34 35 35 35 34 32 29 26 25 23 22 22 23 23 23 22 21 20 19 18 17 18 19 20 20 19 18 16 16 19 22 25 26 22 18 16 16 17 17 16 17 17 17 17 16 15 15 15 15 14 13 13 14
29 29 29 29 29 29 29 29 29 30 30 31 31 32 32 33 33 34 34 35 33 29 24 21 21 21 21 22 22 22 22 20 19 18 17 16 15 16 17 18 18 18 17 16 16 19 23 25 23 19 17 17 18 18 17 16 16 16 16 16 17 18 19 19 18 17 16 16 17
29 28 28 28 28 28 28 29 29 30 30 31 31 31 31 31 32 32 33 34 30 24 19 18 19 20 21 21 21 20 20 19 18 17 16 15 16 16 16 17 18 18 18 18 17 17 19 20 20 20 20 20 19 18 18 18 19 18 18 17 18 19 21 21 21 20 19 19 19
28 28 27 27 27 28 28 29 29 29 29 30 29 29 30 30 30 31 31 30 26 22 20 20 19 18 18 18 18 18 19 18 17 17 17 17 20 20 18 18 19 20 19 19 17 15 14 14 14 15 16 17 18 19 21 22 22 21 19 17 16 16 17 18 19 20 21 21 21
27 27 27 27 27 27 28 28 28 28 28 28 27 27 28 30 29 28 26 24 22 22 22 21 17 14 14 15 17 18 19 19 19 19 21 24 25 23 20 20 20 20 18 17 15 14 13 13 13 14 15 16 18 20 22 23 23 21 19 16 14 13 12 14 15 18 20 21 21
27 27 27 27 27 27 27 27 27 27 27 27 26 26 27 28 27 24 22 20 19 21 21 18 15 13 14 16 18 20 21 22 23 24 24 25 22 19 19 19 18 17 15 13 12 11 11 12 14 14 15 15 17 18 20 20 19 17 15 12 11 10 9 10 12 14 16 18 18
27 27 27 27 27 27 27 27 27 27 27 26 25 25 25 25 24 22 20 19 19 18 17 16 15 16 17 19 21 22 24 26 27 26 22 19 18 17 17 16 14 12 11 10 10 10 11 13 14 15 15 15 16 17 16 14 12 10 8 7 7 8 9 10 11 12 12 13 14
28 28 28 28 28 28 28 27 27 27 27 27 26 25 23 22 21 20 19 18 17 16 16 16 18 20 22 22 21 22 24 26 27 25 21 19 18 18 17 16 15 13 12 11 12 13 15 16 16 17 16 16 15 15 14 13 10 9 8 7 8 9 9 10 11 12 12 13 14
28 29 29 29 29 29 29 29 28 28 28 27 26 25 23 21 20 19 17 15 14 15 17 20 22 24 24 23 23 23 24 25 27 26 24 23 24 23 23 22 22 20 18 16 16 16 17 16 16 16 16 16 16 15 16 15 13 11 10 10 10 10 9 9 10 11 11 12 14
29 30 30 30 30 30 30 30 29 29 28 27 26 25 24 23 21 19 16 14 14 17 20 23 26 27 26 25 24 24 25 25 27 27 27 28 28 28 28 27 27 24 21 17 15 14 13 13 12 12 13 15 16 16 14 14 12 11 10 11 11 11 11 12 12 12 13 14 15
29 30 30 30 30 30 30 30 29 29 27 26 25 24 23 23 22 19 16 16 18 20 23 25 27 27 26 25 24 24 25 26 27 27 28 29 29 28 27 26 24 21 18 15 13 12 11 11 11 11 12 13 13 14 14 14 15 15 16 17 17 18 18 19 19 19 20 20 21
29 30 30 30 30 29 29 29 28 27 26 24 23 22 21 20 19 17 16 17 20 23 26 26 26 26 26 25 24 24 25 27 28 29 28 28 27 25 24 22 19 17 16 14 13 13 14 14 14 15 15 15 15 16 17 18 19 20 21 21 22 22 22 23 23 23 23 23 23
30 30 29 29 29 28 28 27 26 25 24 22 21 20 19 18 16 16 17 20 23 26 27 27 26 27 28 27 25 25 26 28 29 29 28 26 24 23 21 20 19 18 17 17 17 18 18 17 18 18 18 18 18 18 19 19 19 20 20 21 21 21 22 22 21 21 21 21 21
30 30 29 28 27 27 26 26 24 23 22 20 19 19 18 17 17 19 22 24 27 29 29 27 29 30 31 30 28 27 27 28 27 25 24 23 22 21 21 21 20 20 21 21 21 20 20 19 19 18 18 18 18 18 18 18 19 19 19 19 19 19 19 19 18 18 17 17 18
30 29 28 27 27 26 25 24 23 22 20 19 19 18 18 18 21 23 25 27 30 32 33 32 32 32 32 31 29 28 26 25 23 21 21 20 20 20 20 20 21 21 21 21 21 20 20 19 18 18 18 17 17 17 18 18 18 18 18 17 17 17 17 16 15 15 15 15 16
29 28 27 27 26 25 24 24 23 22 19 17 17 16 15 18 21 24 27 30 32 34 35 34 33 31 30 28 26 24 23 21 19 19 18 18 18 18 19 19 19 19 19 19 19 18 18 17 17 17 17 17 17 17 17 17 17 16 16 16 16 15 15 15 14 14 14 15 15
28 27 26 26 25 24 24 23 22 21 18 15 13 12 13 17 21 25 28 31 33 34 33 32 31 29 26 24 22 21 19 18 18 17 17 17 17 17 17 18 18 19 18 18 17 16 16 16 16 16 16 17 17 17 17 17 17 16 16 16 15 15 15 15 14 14 15 15 16
26 26 26 25 24 23 23 22 21 19 17 14 13 12 14 18 21 25 29 31 32 32 31 29 27 24 22 20 19 18 18 17 17 17 16 16 16 17 17 18 18 18 18 17 16 15 15 15 16 16 17 18 18 19 19 19 18 18 17 17 15 14 14 14 14 15 15 16 16
26 25 25 24 23 23 22 20 18 17 15 13 13 14 17 20 23 26 28 30 30 29 27 24 21 19 18 18 18 17 17 17 16 16 15 15 16 17 18 19 19 19 18 17 16 15 15 15 16 17 18 19 20 20 21 21 20 20 19 18 16 15 14 14 14 15 15 16 16
25 25 24 23 23 22 20 18 17 17 16 14 15 17 20 22 24 26 28 28 27 25 21 19 17 17 17 17 17 16 15 15 14 14 15 15 16 17 18 19 19 19 18 17 16 16 15 15 16 18 19 20 21 22 22 22 22 21 20 19 18 17 16 15 15 16 16 17 17
24 23 22 22 21 21 19 18 18 18 18 17 18 20 21 22 25 27 27 26 23 20 17 16 16 16 15 15 14 14 13 13 13 14 14 14 14 15 16 17 18 18 17 16 16 15 15 15 16 17 19 20 21 22 23 23 23 22 21 20 20 19 19 18 18 17 17 17 17
24 22 21 21 21 20 19 19 19 20 20 20 20 21 24 25 27 27 25 22 19 17 16 16 16 15 14 13 12 12 12 13 13 13 12 12 12 13 14 15 16 17 16 16 15 14 15 15 16 17 19 20 21 23 23 24 23 23 22 21 21 20 20 19 19 18 17 17 17
23 22 21 22 22 21 21 21 22 22 22 23 24 25 27 27 26 24 21 18 16 16 16 16 15 14 13 12 12 11 11 11 11 11 11 10 11 12 13 14 15 16 16 15 15 15 15 16 17 19 20 21 22 23 24 24 23 23 22 21 21 20 19 19 18 18 18 18 18
24 23 22 24 24 24 24 23 23 23 24 25 27 27 26 25 22 19 17 15 15 15 15 15 14 13 12 12 11 10 10 10 10 11 11 11 11 13 15 16 14 14 15 15 16 16 17 18 19 20 21 22 23 23 23 23 23 22 22 21 21 20 19 18 17 17 18 19 19
25 24 25 25 24 25 25 24 24 24 26 26 26 25 23 20 18 16 15 14 14 14 13 13 12 12 12 12 10 9 9 9 10 11 12 12 13 15 16 16 14 14 15 16 17 17 18 19 20 20 21 21 22 22 22 22 21 21 21 21 20 19 17 16 17 17 18 18 18
26 26 26 26 26 26 25 25 24 24 24 23 22 20 19 17 16 15 14 13 13 12 12 12 12 12 11 11 10 10 10 10 12 13 14 15 15 17 17 16 13 14 15 16 17 18 18 19 19 19 19 20 20 21 21 21 21 21 21 20 19 17 16 16 16 17 17 18 17
26 27 27 27 26 25 24 23 22 21 20 19 18 17 16 16 15 15 14 13 12 12 12 12 12 11 10 10 10 11 11 13 15 16 17 17 17 18 17 17 14 14 15 16 17 18 18 18 18 18 19 20 21 21 21 21 21 21 20 20 18 16 15 15 16 17 17 18 18
27 26 26 25 24 22 20 19 18 17 17 16 16 16 16 16 15 15 14 13 12 12 12 12 12 11 11 11 12 13 14 16 17 18 18 18 17 17 17 17 17 16 16 17 19 19 19 19 18 19 20 22 23 23 23 22 22 21 20 19 17 16 15 15 16 17 18 19 19
25 24 23 21 20 18 17 16 15 15 15 15 15 15 16 16 15 15 14 13 12 12 12 12 12 13 13 14 15 16 17 17 17 17 17 17 17 16 17 18 18 18 18 19 20 20 20 19 19 20 22 23 24 25 24 23 23 22 21 20 19 17 17 17 18 18 19 19 19
22 21 19 17 16 15 15 14 14 14 14 14 14 15 15 15 15 14 13 12 12 12 13 14 14 15 15 15 16 16 17 16 16 16 17 17 17 17 17 18 19 19 19 19 20 20 20 20 20 21 23 24 25 25 25 24 24 23 22 21 21 21 21 21 21 21 20 20 20
20 18 17 15 15 15 15 15 16 16 16 15 15 15 16 15 15 14 13 13 13 14 15 16 16 16 16 16 16 16 16 16 16 17 17 17 17 16 16 17 18 18 19 19 19 19 19 19 20 22 24 25 26 25 25 24 24 23 23 22 22 23 25 26 26 25 24 22 21
19 18 18 17 17 18 18 19 19 19 19 18 17 16 16 16 16 16 15 15 15 16 17 17 17 16 15 15 15 15 16 17 18 18 17 17 17 16 16 16 17 18 18 19 19 20 20 20 21 23 25 26 26 26 25 24 23 22 21 21 22 23 25 28 28 28 27 25 23
Wind_Direction
301 300 299 298 297 295 293 291 289 288 289 290 291 291 290 289 287 285 283 280 277 274 272 270 267 265 263 261 260 261 262 263 263 263 262 262 264 267 270 273 275 276 277 276 275 271 267 263 260 258 256 255 255 256 257 258 259 260 261 261 262 263 265 266 267 269 271 273 274
304 303 302 300 299 296 294 291 289 288 289 290 291 291 290 289 287 285 283 280 277 274 271 269 267 265 263 262 261 261 262 264 264 264 263 262 263 266 269 273 276 278 278 277 276 272 267 262 258 256 254 252 253 254 256 258 259 261 262 263 264 264 265 265 266 267 268 270 271
306 305 304 303 301 299 296 293 291 290 290 290 291 290 289 289 287 286 284 282 279 276 273 270 268 266 264 263 262 262 263 264 264 264 264 264 265 267 270 274 276 277 276 275 273 270 266 261 258 255 253 252 253 254 255 257 259 262 265 266 267 267 267 266 266 267 267 266 265
307 306 305 304 303 301 299 297 294 292 291 291 291 290 289 288 287 286 285 283 282 279 276 273 271 269 267 265 264 263 263 262 262 263 265 266 268 270 272 274 275 274 272 271 269 267 265 262 258 256 254 254 254 254 255 256 258 261 265 268 267 265 262 262 263 264 263 261 259
307 306 305 304 304 303 301 299 298 296 294 294 293 292 291 289 287 285 284 282 281 280 278 277 274 272 270 268 266 265 263 261 260 261 263 267 270 273 275 275 275 274 272 270 267 265 264 262 261 258 256 253 252 252 251 252 254 257 261 263 261 259 257 258 259 261 260 256 252
308 307 306 305 304 303 302 300 299 298 297 296 295 294 293 291 288 285 283 281 279 278 277 277 275 274 271 269 268 266 264 262 261 262 264 268 271 273 275 275 274 273 272 271 268 266 263 262 260 258 254 251 248 246 246 247 249 251 254 255 256 256 257 259 261 261 259 254 249
309 309 308 307 306 304 303 301 300 299 298 298 297 296 295 293 290 287 284 282 279 277 276 275 274 273 271 269 267 266 266 267 268 268 269 270 272 273 274 274 274 272 271 271 269 266 263 261 258 255 252 250 248 245 244 246 249 251 252 254 256 257 259 262 264 264 261 256 254
310 310 309 309 308 306 304 303 301 300 299 299 299 298 297 295 293 290 287 284 281 278 276 274 273 273 271 269 269 270 272 273 274 275 275 275 276 276 277 277 276 274 272 270 267 265 264 261 259 255 252 250 248 248 250 252 254 254 255 256 259 262 264 266 267 266 264 263 262
312 311 310 310 309 308 307 305 304 303 302 301 301 300 299 297 295 293 290 287 282 278 275 273 274 275 274 272 274 276 279 280 280 279 278 278 280 282 283 282 280 279 276 271 268 266 265 264 262 258 254 252 255 259 261 258 258 257 256 256 257 258 259 261 263 264 264 263 259
313 312 311 311 310 310 309 308 307 306 305 304 303 302 300 298 297 295 293 289 284 278 274 274 277 278 278 278 280 282 283 284 283 281 280 282 286 288 287 286 286 285 282 279 275 272 271 270 269 263 256 258 267 270 268 262 260 258 256 253 249 246 244 245 248 251 252 253 251
313 312 312 311 311 311 311 311 311 310 308 307 305 303 301 299 298 296 294 291 284 277 272 275 278 280 282 283 285 286 286 287 288 288 289 292 294 293 289 288 288 288 288 287 284 281 280 280 277 270 265 271 275 274 269 262 257 254 251 249 245 243 241 241 241 242 243 245 247
312 311 311 311 311 312 313 313 313 311 310 308 306 304 302 301 299 297 294 290 287 282 276 274 276 279 283 288 290 293 294 295 297 298 300 301 300 297 294 295 295 295 294 293 290 288 287 286 283 279 277 277 274 269 262 255 249 246 245 245 245 244 244 245 245 245 245 245 245
312 312 311 312 312 313 313 313 313 311 310 308 307 306 306 304 301 296 292 289 289 285 279 274 275 280 288 296 300 302 303 303 303 302 301 302 299 299 303 305 304 301 297 295 291 288 285 283 280 277 274 271 267 262 258 253 249 246 245 246 246 245 245 246 247 247 247 246 245
313 313 313 313 313 313 314 313 313 312 310 310 310 311 311 309 305 300 294 291 287 282 277 275 277 285 298 306 308 307 305 305 304 303 302 301 302 304 307 307 304 300 297 296 293 289 283 277 271 268 266 265 263 261 258 255 252 250 249 250 248 244 241 241 244 246 246 247 247
315 315 314 314 314 314 314 314 314 313 312 312 314 315 314 313 312 309 305 299 292 285 281 279 280 288 296 300 300 301 303 305 304 305 306 304 305 304 303 302 301 298 297 298 297 290 279 270 262 259 258 258 258 256 254 253 252 251 250 250 247 241 235 233 236 241 244 246 247
318 317 317 316 316 316 316 316 315 314 314 314 315 315 315 317 318 318 316 312 306 298 292 287 285 285 287 288 291 296 301 304 303 302 303 303 299 296 296 296 297 295 294 294 290 279 267 260 254 251 250 250 248 246 243 242 240 239 239 241 240 235 228 225 225 228 232 236 239
320 320 319 319 318 318 317 317 316 315 314 314 314 314 315 318 321 322 321 319 315 309 302 296 292 291 290 291 295 298 300 300 298 296 294 293 294 295 296 296 294 289 283 277 271 264 258 253 249 247 245 244 243 245 248 247 238 223 215 220 226 228 227 223 220 219 220 224 230
320 320 320 320 319 318 317 316 315 314 314 313 313 313 313 315 318 320 321 320 312 305 301 301 302 302 301 301 301 299 296 293 292 291 291 292 296 299 300 299 294 287 278 268 261 257 253 251 249 248 248 252 257 265 269 264 250 231 220 226 233 239 241 238 234 232 234 238 243
319 319 319 319 318 317 316 315 314 313 313 312 313 312 313 314 315 316 315 310 300 296 299 303 307 308 307 304 300 296 291 290 291 292 293 295 297 299 299 297 292 285 276 267 261 258 258 258 259 260 264 271 275 278 277 273 264 256 255 259 265 270 273 273 272 270 268 267 266
319 319 318 318 317 317 316 316 315 314 314 314 314 314 314 315 316 315 310 301 295 296 300 303 306 306 305 303 299 294 292 291 293 295 296 297 298 297 296 293 288 281 274 270 273 277 281 282 285 288 290 292 291 290 289 287 287 287 287 286 286 287 287 287 286 285 283 282 280
319 319 318 318 317 317 317 318 317 317 317 318 318 316 315 316 317 313 305 299 298 301 303 303 305 305 303 301 299 296 295 296 298 299 300 299 298 296 293 289 284 279 278 281 287 293 297 298 300 302 303 302 301 300 298 296 294 293 292 291 291 290 290 290 290 290 289 289 288
319 319 318 318 318 319 320 320 321 322 323 323 321 319 316 312 310 305 302 301 303 305 305 305 306 305 302 302 301 300 300 302 303 304 303 301 299 296 293 290 287 287 288 292 295 298 300 301 302 302 302 302 302 301 301 300 299 298 297 296 296 296 297 297 298 298 297 297 296
318 318 319 319 319 320 322 323 325 326 328 329 326 322 317 310 305 304 304 306 308 309 310 310 308 305 304 304 305 305 306 307 307 306 304 302 299 297 296 295 295 297 299 301 303 305 306 306 306 306 306 307 308 308 308 308 307 307 306 305 305 305 306 306 306 305 304 302 300
318 318 319 320 320 321 322 324 326 329 332 331 328 324 317 311 308 307 308 310 312 313 313 311 309 307 308 308 309 310 310 309 307 305 303 302 301 302 303 304 306 308 310 311 312 313 314 315 316 317 318 319 320 320 319 319 317 316 315 313 312 312 312 312 311 309 306 303 301
319 319 320 320 321 321 321 323 325 328 332 335 329 324 319 313 311 311 312 314 315 314 313 310 308 308 308 310 311 312 311 310 308 306 306 308 309 312 314 317 319 321 321 321 322 322 323 325 327 329 330 330 330 329 328 327 325 323 320 318 316 315 314 314 314 312 310 307 304
320 321 322 322 322 322 322 323 324 326 330 337 337 330 319 313 312 313 314 315 315 313 310 307 306 306 308 309 310 311 312 312 312 312 315 319 322 325 329 332 334 334 333 332 332 332 333 335 336 336 336 335 334 333 332 330 327 324 321 319 317 316 316 316 315 313 310 307 303
323 324 325 326 326 325 325 324 324 325 328 331 331 322 313 310 312 313 314 314 312 309 306 304 304 306 308 311 313 315 316 317 319 323 328 333 338 342 346 347 347 345 342 339 338 337 337 338 337 336 334 333 332 332 331 329 327 324 322 320 318 316 314 312 310 307 304 301 297
326 327 328 329 329 329 328 328 329 329 328 328 323 315 310 310 312 313 313 311 308 305 303 304 307 312 316 319 320 322 323 326 331 337 344 350 355 357 357 356 353 348 343 337 333 332 330 330 329 328 327 327 327 327 327 327 326 324 322 320 317 313 307 302 299 297 295 292 290
329 330 331 333 334 334 333 330 328 325 323 322 317 313 311 311 313 313 311 307 304 303 305 311 319 326 329 329 328 329 333 339 346 352 358 2 3 2 359 354 349 342 335 329 325 322 320 320 320 320 320 320 321 322 323 323 323 322 321 319 316 311 305 299 294 292 291 290 290
334 333 335 337 339 339 336 331 327 322 317 313 312 311 311 312 312 310 307 303 303 306 314 324 333 337 337 336 336 340 346 353 358 2 4 3 0 357 352 347 341 333 326 322 319 317 316 316 316 316 316 316 317 318 319 320 320 319 318 317 315 313 310 307 303 300 298 297 296
338 338 337 338 339 339 337 330 324 319 314 310 310 309 309 310 309 307 304 304 308 316 326 336 343 345 344 345 348 352 355 358 1 1 358 353 348 344 342 340 336 328 321 320 318 317 316 316 315 315 314 314 315 316 317 317 317 317 316 316 314 314 313 312 311 309 308 306 303
342 342 338 335 332 332 331 326 321 316 313 311 311 311 311 310 308 307 308 313 321 330 339 346 350 351 351 352 353 352 350 348 348 346 342 335 332 330 332 337 335 327 321 319 317 316 315 314 314 313 313 314 314 315 315 315 315 315 314 314 313 313 313 313 312 311 310 307 303
342 340 335 328 326 323 321 320 318 315 314 314 314 314 313 312 312 316 321 328 334 340 345 348 349 348 347 346 342 337 333 333 335 335 333 329 326 323 325 332 332 324 316 314 313 311 311 310 310 311 312 313 313 313 313 313 313 312 312 312 312 312 313 313 311 309 306 302 299
338 335 329 325 323 320 318 317 316 316 316 317 317 316 316 317 323 328 333 335 338 339 340 338 335 333 333 334 330 328 331 335 336 334 330 325 320 316 319 326 326 316 309 308 308 306 306 307 308 310 313 314 314 314 313 312 311 311 310 310 310 311 311 309 306 303 301 299 297
333 329 325 322 321 320 319 319 319 320 321 321 321 322 325 329 332 332 330 329 329 327 325 322 320 320 323 327 330 333 335 335 332 328 325 321 315 312 313 320 319 312 308 307 306 305 305 307 311 315 318 319 318 317 315 314 312 311 310 309 308 307 306 304 301 298 296 294 293
327 324 322 322 322 323 325 326 327 327 328 330 332 334 335 334 330 326 322 322 322 323 323 323 323 323 326 330 333 333 329 325 322 320 319 316 312 309 311 315 316 314 312 309 308 307 308 310 315 320 323 325 324 322 320 318 316 314 313 311 307 304 302 300 296 292 289 286 285
323 323 324 327 330 333 335 336 336 337 339 341 340 337 332 328 325 323 324 327 331 332 332 331 330 330 330 330 329 325 320 318 317 317 315 314 312 310 311 313 317 317 314 311 310 310 310 311 315 320 325 327 327 326 324 323 322 321 319 316 310 304 298 296 291 287 283 282 282
327 330 334 338 341 344 345 345 344 344 343 341 337 332 328 327 328 330 333 336 337 335 333 330 328 326 324 321 319 318 316 317 317 315 314 313 313 312 311 313 317 317 315 313 312 311 309 309 312 317 322 326 327 326 326 325 325 325 324 322 317 310 303 298 292 288 285 284 283
336 340 344 346 346 346 345 343 341 338 336 334 331 330 330 333 334 336 336 335 332 330 328 325 322 320 318 316 315 315 317 318 317 315 313 312 313 312 312 312 315 316 316 314 312 309 306 306 308 312 317 320 322 323 324 324 324 324 325 325 323 319 315 311 305 300 295 291 287
343 344 343 341 339 336 334 333 332 330 330 330 330 331 333 333 333 331 329 327 326 324 323 321 318 316 314 313 314 316 318 318 318 315 313 311 311 311 311 312 314 316 316 313 309 306 304 304 305 308 311 313 315 317 318 318 319 320 322 323 323 323 322 321 319 315 309 303 296
342 339 337 335 334 333 332 332 333 334 334 335 335 334 333 331 328 326 324 322 321 320 319 318 316 315 314 313 315 316 318 319 319 317 314 312 310 310 311 312 315 316 315 312 309 307 306 306 307 307 307 308 309 310 311 311 313 315 317 318 319 320 321 322 321 319 316 312 307
Height
1520 1519 1518 1517 1516 1515 1514 1513 1511 1510 1509 1508 1507 1506 1505 1504 1503 1501 1500 1500 1499 1497 1496 1495 1495 1494 1493 1492 1492 1491 1490 1490 1490 1489 1489 1488 1487 1487 1486 1486 1485 1485 1485 1485 1484 1484 1484 1483 1482 1481 1481 1480 1480 1480 1480 1480 1479 1479 1478 1478 1478 1478 1478 1478 1477 1477 1477 1476 1476
1519 1518 1517 1516 1515 1513 1512 1510 1509 1508 1507 1506 1505 1504 1503 1502 1501 1500 1498 1498 1497 1496 1495 1494 1493 1492 1491 1490 1490 1489 1489 1488 1488 1487 1486 1486 1485 1485 1484 1484 1483 1483 1483 1482 1482 1481 1481 1481 1480 1479 1478 1478 1477 1477 1477 1477 1477 1477 1476 1476 1476 1476 1476 1475 1475 1475 1475 1475 1474
1517 1516 1515 1514 1513 1511 1510 1509 1507 1506 1505 1505 1504 1503 1502 1500 1499 1498 1497 1496 1495 1494 1493 1492 1491 1490 1489 1488 1487 1487 1486 1485 1485 1485 1485 1484 1483 1483 1482 1481 1481 1480 1480 1480 1479 1479 1479 1478 1478 1477 1476 1475 1475 1475 1475 1475 1475 1475 1475 1474 1474 1474 1474 1473 1473 1473 1473 1473 1472
1516 1515 1514 1513 1511 1510 1509 1507 1505 1504 1503 1502 1502 1501 1500 1499 1498 1497 1496 1495 1494 1493 1492 1490 1490 1489 1487 1486 1485 1484 1483 1483 1482 1482 1482 1482 1481 1481 1480 1479 1478 1478 1477 1477 1477 1476 1476 1476 1475 1475 1474 1473 1473 1472 1472 1472 1472 1472 1473 1473 1472 1472 1472 1471 1471 1471 1471 1470 1470
1514 1513 1512 1511 1510 1509 1507 1506 1504 1503 1501 1500 1500 1499 1498 1497 1496 1495 1495 1493 1492 1491 1490 1489 1488 1487 1486 1485 1483 1482 1481 1480 1480 1479 1479 1479 1479 1478 1478 1477 1476 1475 1475 1474 1474 1474 1473 1473 1472 1472 1471 1471 1470 1470 1470 1470 1470 1470 1470 1470 1470 1470 1470 1470 1469 1469 1469 1468 1468
1513 1512 1510 1510 1508 1507 1506 1505 1503 1501 1500 1499 1498 1497 1496 1495 1494 1493 1492 1491 1490 1489 1488 1487 1486 1485 1484 1483 1481 1480 1479 1478 1477 1476 1476 1476 1476 1476 1475 1475 1473 1472 1472 1471 1471 1471 1471 1471 1470 1470 1469 1468 1467 1466 1466 1467 1468 1468 1468 1468 1468 1468 1468 1468 1467 1467 1467 1466 1467
1511 1510 1509 1508 1507 1505 1504 1503 1502 1500 1499 1497 1496 1495 1494 1493 1492 1491 1490 1489 1488 1487 1485 1485 1483 1482 1481 1480 1479 1478 1477 1476 1475 1474 1474 1473 1473 1473 1473 1472 1471 1470 1470 1469 1469 1469 1468 1468 1467 1466 1465 1464 1463 1464 1464 1464 1465 1466 1466 1465 1465 1466 1466 1465 1465 1465 1465 1465 1465
1510 1509 1508 1506 1505 1504 1503 1501 1500 1499 1497 1496 1495 1494 1492 1491 1490 1489 1488 1487 1485 1484 1483 1482 1481 1480 1479 1477 1476 1475 1475 1474 1473 1472 1472 1472 1471 1471 1470 1470 1469 1468 1467 1467 1466 1465 1465 1465 1464 1463 1462 1461 1461 1462 1462 1462 1463 1463 1463 1463 1463 1464 1464 1464 1464 1464 1464 1464 1464
1509 1507 1506 1505 1504 1502 1501 1500 1498 1497 1495 1494 1493 1492 1490 1489 1488 1487 1485 1484 1483 1481 1480 1480 1479 1478 1477 1476 1475 1474 1473 1472 1471 1470 1470 1470 1469 1469 1468 1468 1467 1466 1465 1465 1463 1462 1462 1462 1461 1461 1460 1460 1460 1460 1460 1460 1461 1461 1461 1461 1461 1462 1462 1462 1462 1462 1462 1462 1463
1507 1506 1505 1503 1502 1501 1500 1498 1496 1495 1494 1492 1491 1490 1489 1487 1486 1485 1483 1482 1480 1479 1477 1477 1477 1477 1476 1475 1475 1474 1472 1471 1470 1469 1468 1467 1467 1467 1466 1465 1465 1464 1463 1463 1461 1460 1460 1460 1460 1460 1460 1460 1460 1460 1460 1459 1460 1460 1460 1460 1460 1460 1460 1460 1461 1460 1460 1461 1461
1506 1505 1503 1502 1500 1499 1498 1496 1495 1493 1492 1491 1490 1488 1487 1486 1485 1483 1481 1479 1476 1475 1475 1475 1475 1475 1475 1474 1473 1472 1471 1469 1469 1468 1467 1467 1465 1465 1464 1463 1462 1462 1461 1460 1459 1459 1458 1458 1459 1460 1460 1460 1459 1459 1459 1458 1458 1458 1458 1458 1458 1457 1457 1458 1458 1458 1459 1459 1459
1504 1503 1502 1500 1499 1498 1496 1495 1493 1492 1491 1490 1488 1487 1485 1484 1483 1481 1479 1476 1474 1473 1473 1474 1473 1473 1473 1472 1472 1471 1470 1469 1468 1467 1466 1465 1463 1462 1461 1461 1461 1460 1460 1459 1459 1458 1458 1457 1457 1458 1458 1459 1459 1458 1457 1456 1455 1455 1455 1455 1455 1455 1455 1455 1455 1455 1456 1456 1456
1503 1501 1500 1499 1497 1496 1495 1493 1492 1491 1490 1488 1487 1486 1484 1483 1481 1479 1476 1474 1473 1472 1471 1471 1471 1472 1472 1472 1471 1470 1470 1468 1466 1465 1463 1462 1461 1461 1461 1461 1461 1461 1460 1459 1458 1458 1457 1457 1458 1458 1458 1458 1457 1456 1455 1454 1453 1453 1453 1453 1452 1451 1451 1452 1452 1453 1453 1453 1454
1501 1500 1499 1497 1496 1495 1493 1492 1491 1490 1488 1487 1486 1485 1483 1481 1479 1477 1475 1472 1471 1470 1469 1469 1470 1470 1471 1471 1471 1469 1467 1465 1463 1462 1461 1462 1462 1463 1462 1462 1461 1460 1459 1458 1457 1457 1456 1456 1456 1456 1456 1455 1455 1453 1452 1452 1451 1451 1451 1450 1450 1450 1449 1449 1450 1450 1450 1451 1451
1500 1499 1497 1496 1495 1493 1492 1491 1490 1488 1487 1486 1485 1483 1481 1480 1478 1476 1474 1472 1470 1469 1468 1468 1469 1470 1470 1470 1468 1466 1465 1463 1462 1462 1461 1462 1462 1461 1460 1460 1459 1458 1457 1456 1456 1455 1455 1454 1454 1454 1453 1453 1452 1451 1450 1450 1449 1449 1449 1449 1449 1448 1448 1448 1448 1448 1449 1449 1450
1499 1498 1496 1495 1494 1492 1491 1490 1488 1487 1486 1485 1483 1482 1480 1478 1477 1475 1474 1472 1470 1469 1468 1468 1468 1468 1468 1466 1465 1464 1464 1464 1464 1463 1462 1461 1460 1459 1458 1457 1456 1456 1455 1455 1454 1453 1453 1452 1452 1451 1451 1450 1449 1448 1447 1447 1447 1447 1447 1447 1447 1447 1446 1446 1446 1446 1447 1447 1447
1498 1496 1495 1494 1492 1491 1490 1488 1487 1486 1485 1483 1482 1481 1479 1478 1476 1475 1473 1472 1470 1469 1468 1467 1467 1466 1465 1465 1464 1464 1465 1465 1464 1463 1461 1460 1459 1458 1457 1456 1455 1455 1454 1453 1452 1451 1451 1450 1450 1449 1448 1447 1446 1445 1445 1445 1445 1446 1445 1445 1445 1445 1444 1444 1444 1444 1444 1444 1445
1497 1495 1494 1493 1491 1490 1488 1487 1486 1485 1483 1482 1481 1480 1478 1477 1475 1474 1473 1471 1470 1468 1467 1466 1466 1465 1465 1464 1464 1464 1464 1463 1463 1461 1460 1459 1459 1458 1456 1455 1455 1454 1453 1452 1451 1450 1449 1449 1448 1447 1446 1446 1445 1445 1445 1445 1445 1445 1445 1444 1444 1444 1444 1443 1443 1442 1442 1443 1444
1496 1495 1493 1492 1490 1489 1487 1486 1485 1483 1482 1480 1479 1478 1477 1476 1475 1473 1471 1469 1467 1466 1466 1466 1465 1465 1464 1464 1463 1462 1462 1461 1461 1460 1459 1458 1458 1457 1456 1455 1454 1453 1452 1451 1450 1449 1448 1448 1447 1446 1446 1445 1445 1445 1445 1445 1445 1445 1444 1444 1444 1444 1444 1444 1443 1443 1443 1443 1444
1495 1494 1492 1490 1489 1487 1486 1485 1483 1481 1480 1479 1477 1476 1475 1474 1473 1471 1469 1467 1465 1465 1465 1465 1465 1464 1463 1462 1462 1461 1460 1460 1460 1459 1458 1457 1456 1455 1455 1454 1453 1452 1451 1450 1449 1449 1448 1448 1447 1446 1446 1445 1445 1445 1445 1445 1445 1445 1444 1444 1444 1444 1444 1444 1443 1443 1443 1443 1443
1494 1492 1491 1489 1488 1486 1485 1483 1481 1480 1479 1477 1475 1474 1473 1472 1471 1470 1467 1465 1465 1465 1465 1464 1464 1463 1462 1461 1461 1460 1459 1459 1458 1457 1456 1455 1454 1454 1453 1452 1451 1451 1450 1450 1449 1448 1448 1447 1447 1446 1445 1445 1444 1444 1444 1444 1444 1444 1443 1443 1443 1443 1443 1442 1442 1442 1442 1442 1442
1492 1491 1489 1488 1486 1485 1483 1482 1480 1479 1477 1475 1473 1472 1470 1470 1469 1468 1466 1465 1465 1464 1464 1463 1462 1462 1461 1461 1460 1459 1458 1457 1456 1455 1455 1454 1453 1452 1452 1451 1450 1450 1449 1449 1448 1447 1447 1446 1445 1445 1444 1444 1443 1443 1443 1443 1442 1442 1442 1442 1442 1441 1441 1441 1441 1441 1441 1441 1441
1491 1490 1488 1486 1485 1484 1482 1480 1479 1477 1475 1473 1472 1470 1469 1468 1467 1467 1466 1465 1464 1464 1463 1462 1461 1460 1460 1460 1460 1458 1457 1456 1455 1454 1453 1453 1452 1451 1450 1450 1450 1449 1448 1447 1447 1446 1445 1445 1444 1444 1443 1443 1442 1442 1442 1442 1441 1441 1441 1441 1440 1440 1440 1440 1440 1440 1440 1440 1440
1490 1488 1486 1485 1484 1482 1480 1479 1478 1476 1474 1472 1470 1470 1469 1467 1466 1466 1465 1464 1463 1463 1462 1462 1461 1460 1460 1459 1458 1457 1456 1455 1454 1453 1452 1452 1451 1450 1450 1449 1449 1448 1447 1446 1446 1445 1444 1444 1443 1443 1442 1442 1442 1442 1441 1441 1441 1440 1440 1440 1440 1440 1440 1439 1439 1439 1439 1439 1439
1488 1487 1485 1484 1482 1480 1479 1478 1477 1475 1473 1471 1470 1469 1467 1466 1465 1465 1464 1463 1462 1462 1462 1461 1460 1460 1459 1458 1457 1456 1455 1454 1453 1452 1452 1451 1451 1450 1450 1449 1448 1447 1447 1446 1445 1444 1444 1443 1443 1442 1442 1442 1441 1441 1441 1441 1440 1440 1440 1440 1439 1439 1438 1438 1438 1438 1438 1438 1438
1487 1485 1484 1482 1481 1479 1478 1477 1476 1474 1472 1470 1470 1468 1467 1465 1464 1464 1463 1462 1462 1462 1461 1460 1460 1459 1458 1457 1456 1455 1454 1454 1453 1452 1451 1451 1450 1450 1449 1448 1448 1447 1446 1445 1445 1444 1443 1443 1443 1442 1442 1441 1441 1441 1440 1440 1440 1440 1439 1439 1438 1438 1438 1437 1437 1437 1437 1437 1437
1485 1484 1482 1481 1480 1478 1477 1476 1475 1473 1471 1470 1469 1468 1466 1465 1464 1463 1462 1462 1462 1461 1460 1460 1459 1458 1457 1456 1455 1455 1454 1453 1452 1452 1451 1450 1450 1449 1448 1448 1447 1446 1445 1444 1444 1443 1443 1443 1442 1442 1442 1441 1441 1440 1440 1440 1439 1439 1438 1438 1437 1437 1437 1437 1436 1436 1436 1437 1437
1484 1483 1481 1480 1479 1477 1476 1475 1474 1472 1470 1469 1468 1467 1465 1464 1463 1463 1462 1461 1461 1460 1459 1458 1457 1457 1456 1455 1455 1454 1453 1452 1452 1451 1450 1450 1449 1448 1447 1447 1446 1445 1445 1444 1443 1443 1443 1442 1442 1442 1441 1441 1440 1440 1440 1439 1439 1438 1437 1437 1437 1436 1436 1436 1436 1436 1435 1435 1435
1483 1481 1480 1479 1478 1476 1475 1474 1473 1471 1470 1469 1467 1466 1465 1464 1463 1462 1462 1461 1460 1459 1458 1458 1457 1456 1455 1455 1454 1453 1452 1452 1451 1450 1450 1449 1448 1448 1447 1446 1445 1445 1444 1444 1443 1443 1442 1442 1441 1441 1441 1440 1440 1439 1439 1438 1438 1437 1436 1436 1436 1435 1435 1435 1435 1434 1434 1434 1434
1482 1480 1479 1479 1477 1476 1474 1473 1472 1471 1470 1468 1467 1466 1464 1464 1463 1462 1461 1460 1459 1459 1458 1457 1456 1456 1455 1455 1454 1453 1452 1451 1450 1450 1449 1449 1448 1447 1447 1447 1446 1445 1444 1444 1443 1442 1442 1441 1441 1440 1440 1440 1439 1438 1438 1437 1437 1436 1435 1435 1435 1434 1434 1433 1433 1433 1432 1432 1432
1481 1480 1479 1478 1477 1475 1474 1472 1471 1470 1469 1467 1467 1465 1464 1463 1462 1461 1460 1459 1459 1458 1457 1456 1456 1455 1455 1454 1453 1452 1451 1450 1450 1450 1449 1449 1449 1449 1448 1448 1447 1445 1444 1443 1443 1442 1442 1441 1440 1440 1439 1439 1438 1437 1437 1436 1435 1435 1434 1434 1433 1433 1432 1432 1432 1431 1431 1431 1431
1481 1480 1478 1477 1476 1475 1474 1472 1470 1469 1468 1466 1465 1465 1463 1462 1461 1460 1460 1459 1458 1457 1456 1456 1455 1455 1454 1453 1452 1451 1451 1450 1450 1450 1450 1450 1449 1449 1448 1448 1446 1445 1443 1443 1442 1442 1441 1440 1440 1439 1439 1438 1437 1436 1436 1435 1434 1434 1433 1433 1432 1432 1431 1431 1430 1430 1430 1430 1430
1481 1479 1478 1477 1475 1474 1473 1471 1470 1468 1466 1465 1465 1464 1463 1462 1460 1460 1459 1458 1457 1457 1456 1455 1455 1454 1454 1453 1452 1452 1451 1451 1451 1450 1450 1450 1449 1448 1448 1447 1446 1445 1443 1442 1442 1441 1440 1440 1439 1439 1438 1437 1436 1435 1435 1434 1433 1433 1432 1431 1431 1431 1430 1430 1430 1430 1430 1430 1430
1480 1479 1477 1475 1474 1473 1472 1470 1469 1467 1466 1465 1464 1463 1462 1461 1460 1459 1458 1458 1457 1456 1456 1455 1455 1454 1454 1453 1453 1452 1452 1451 1451 1450 1450 1449 1449 1448 1447 1447 1446 1444 1442 1442 1441 1440 1440 1439 1439 1438 1437 1436 1435 1435 1434 1433 1432 1432 1431 1430 1430 1430 1430 1430 1430 1430 1429 1429 1429
1480 1478 1476 1475 1473 1472 1470 1469 1467 1466 1465 1464 1463 1462 1461 1461 1460 1459 1458 1458 1457 1456 1456 1455 1455 1455 1454 1454 1453 1452 1452 1451 1451 1450 1450 1449 1448 1447 1446 1446 1445 1444 1442 1441 1440 1440 1439 1438 1438 1437 1436 1436 1435 1434 1433 1432 1431 1430 1430 1429 1429 1429 1429 1429 1429 1428 1428 1427 1426
1479 1477 1475 1474 1472 1471 1470 1468 1467 1466 1465 1464 1463 1462 1461 1460 1460 1459 1458 1457 1457 1456 1456 1456 1455 1455 1455 1454 1453 1452 1452 1451 1450 1450 1449 1448 1447 1446 1445 1445 1445 1443 1442 1440 1440 1439 1438 1438 1437 1436 1436 1435 1434 1433 1432 1431 1430 1429 1429 1428 1428 1427 1427 1427 1427 1426 1426 1425 1424
1479 1477 1475 1473 1472 1470 1469 1468 1467 1466 1465 1464 1463 1462 1462 1461 1460 1459 1458 1458 1457 1457 1456 1456 1456 1455 1455 1454 1453 1452 1451 1451 1450 1449 1448 1447 1446 1445 1445 1444 1443 1443 1441 1440 1439 1438 1437 1437 1436 1435 1435 1434 1433 1432 1431 1430 1429 1428 1428 1427 1426 1426 1426 1425 1425 1424 1424 1423 1423
1478 1476 1475 1473 1471 1470 1469 1468 1467 1466 1465 1464 1464 1463 1462 1461 1460 1459 1458 1458 1457 1457 1457 1456 1455 1455 1454 1453 1452 1452 1451 1450 1450 1449 1447 1446 1445 1445 1444 1443 1442 1442 1441 1439 1438 1437 1436 1435 1435 1434 1434 1433 1432 1431 1430 1429 1428 1427 1427 1426 1425 1425 1424 1424 1423 1422 1422 1421 1421
1477 1476 1475 1473 1472 1470 1470 1468 1467 1466 1465 1464 1463 1462 1461 1460 1460 1459 1459 1458 1458 1457 1456 1455 1455 1455 1454 1453 1452 1451 1450 1450 1449 1448 1447 1446 1445 1444 1443 1442 1441 1440 1440 1438 1437 1436 1435 1434 1434 1433 1432 1432 1431 1430 1429 1428 1427 1426 1425 1425 1424 1423 1423 1422 1421 1420 1420 1419 1419
1477 1476 1475 1474 1472 1471 1470 1468 1467 1466 1465 1464 1463 1462 1461 1460 1460 1459 1459 1458 1457 1457 1456 1455 1455 1454 1453 1452 1451 1450 1450 1449 1448 1447 1446 1445 1444 1443 1442 1441 1440 1439 1439 1437 1436 1435 1434 1433 1433 1432 1431 1431 1430 1429 1428 1427 1426 1425 1425 1424 1423 1422 1421 1420 1419 1419 1418 1417 1416
1477 1476 1475 1474 1472 1471 1470 1468 1467 1466 1465 1464 1463 1462 1461 1461 1460 1459 1459 1458 1457 1456 1456 1455 1454 1453 1452 1451 1450 1450 1449 1448 1447 1446 1445 1445 1443 1442 1441 1440 1440 1439 1438 1437 1435 1434 1433 1432 1431 1431 1430 1430 1429 1428 1427 1426 1425 1425 1423 1423 1422 1421 1420 1419 1418 1417 1416 1415 1414